Boise, ID

1:04 PM MST on January 23, 2017 (GMT -0700)
Boise Air Term

Weather History for KBOI - June, 2013

Change the Weather History Date:

Tuesday, June 18, 2013

  Actual Average Record
Temperature  
Mean Temperature 73 °F 68 °F  
Max Temperature 88 °F 82 °F 107 °F (1876)
Min Temperature 57 °F 54 °F 36 °F (1973)
Degree Days  
Heating Degree Days 0 2  
Month to date heating degree days 10 50  
Since 1 June heating degree days 10 50  
Since 1 July heating degree days 5324 5500  
Cooling Degree Days 8 5  
Month to date cooling degree days 101 63  
Year to date cooling degree days 148 107  
Since 1 June cooling degree days 101 63  
Growing Degree Days 22 (Base 50)    
Moisture  
Dew Point 36 °F    
Average Humidity 29    
Maximum Humidity 46    
Minimum Humidity 11    
Precipitation  
Precipitation 0.00 in 0.02 in 1.14 in (1916)
Month to date precipitation T 0.49  
Year to date precipitation 3.92 6.73  
Snow  
Snow 0.00 in 0.00 in 0.00 in (2007)
Month to date snowfall 0.0 0.0  
Since 1 July snowfall 16.0 19.2  
Snow Depth 0.00 in    
Sea Level Pressure  
Sea Level Pressure 29.69 in    
Wind  
Wind Speed 9 mph (NNW)    
Max Wind Speed 37 mph    
Max Gust Speed 46 mph    
Visibility 9 miles    
Events      
T = Trace of Precipitation, MM = Missing Value Source: NWS Daily Summary

Daily Weather History Graph

Daily Weather History Graph

Search for Another Location

Airport or City:

Trip Planner

Search our weather history database for the weather conditions in past years. The results will help you decide how hot, cold, wet, or windy it might be!

Date:

Astronomy

Jun. 18, 2013 Rise Set
Actual Time 6:03 AM MDT 9:29 PM MDT
Civil Twilight 5:27 AM MDT 10:04 PM MDT
Nautical Twilight 4:40 AM MDT 10:51 PM MDT
Astronomical Twilight 3:41 AM MDT 11:51 PM MDT
Moon 4:11 PM MDT (6/18) 2:22 AM MDT (6/18)
Length of Visible Light 16h 37m
Length of Day
15h 25m
Waxing Gibbous, 71% of the Moon is Illuminated
Jun 18
Waxing Gibbous
Jun 23
Full
Jun 29
Last Quarter
Jul 8
New
Jul 15
First Quarter

Hourly Weather History & Observations

Time (MDT) Temp. Dew Point Humidity Pressure Visibility Wind Dir Wind Speed Gust Speed Precip Events Conditions
12:53 AM 72.0 °F 30.9 °F 22% 29.71 in 10.0 mi SSE 5.8 mph - N/A   Clear
1:53 AM 71.1 °F 25.0 °F 18% 29.73 in 10.0 mi Calm Calm - N/A   Clear
2:53 AM 68.0 °F 28.9 °F 23% 29.73 in 10.0 mi Calm Calm - N/A   Clear
3:53 AM 66.0 °F 30.9 °F 27% 29.73 in 10.0 mi Calm Calm - N/A   Clear
4:53 AM 63.0 °F 35.1 °F 35% 29.75 in 10.0 mi Calm Calm - N/A   Clear
5:53 AM 59.0 °F 33.1 °F 38% 29.76 in 10.0 mi SE 3.5 mph - N/A   Clear
6:53 AM 59.0 °F 36.0 °F 42% 29.78 in 10.0 mi Calm Calm - N/A   Clear
7:53 AM 63.0 °F 41.0 °F 45% 29.78 in 10.0 mi Calm Calm - N/A   Clear
8:53 AM 68.0 °F 44.1 °F 42% 29.78 in 10.0 mi WNW 8.1 mph - N/A   Clear
9:53 AM 70.0 °F 45.0 °F 41% 29.78 in 10.0 mi Variable 5.8 mph - N/A   Clear
10:53 AM 73.9 °F 43.0 °F 33% 29.76 in 10.0 mi NNW 6.9 mph - N/A   Unknown
11:53 AM 78.1 °F 33.1 °F 19% 29.74 in 10.0 mi NW 8.1 mph - N/A   Clear
12:15 PM 78.8 °F 30.2 °F 17% 29.82 in 8.0 mi Variable 5.8 mph - N/A   Partly Cloudy
12:53 PM 80.1 °F 33.1 °F 18% 29.72 in 10.0 mi NNW 8.1 mph - N/A   Clear
1:53 PM 82.0 °F 30.9 °F 16% 29.69 in 10.0 mi NNE 4.6 mph - N/A   Clear
2:53 PM 84.0 °F 30.9 °F 15% 29.66 in 10.0 mi Variable 6.9 mph - N/A   Clear
3:53 PM 84.9 °F 30.9 °F 14% 29.63 in 10.0 mi North 6.9 mph - N/A   Clear
4:53 PM 86.0 °F 27.0 °F 12% 29.58 in 10.0 mi NNW 8.1 mph 19.6 mph N/A   Clear
5:53 PM 86.0 °F 30.0 °F 13% 29.56 in 10.0 mi NW 17.3 mph 20.7 mph N/A   Clear
6:53 PM 81.0 °F 37.0 °F 21% 29.58 in 2.5 mi WNW 35.7 mph 43.7 mph N/A   Haze
6:59 PM 75.2 °F 44.6 °F 34% 29.66 in 1.2 mi NW 31.1 mph 43.7 mph N/A   Haze
7:02 PM 75.2 °F 44.6 °F 34% 29.67 in 1.5 mi WNW 33.4 mph 43.7 mph N/A   Haze
7:15 PM 73.4 °F 42.8 °F 33% 29.68 in 5.0 mi NW 29.9 mph 46.0 mph N/A   Haze
7:37 PM 71.6 °F 42.8 °F 35% 29.69 in 5.0 mi NNW 27.6 mph 38.0 mph N/A   Haze
7:53 PM 72.0 °F 42.1 °F 34% 29.63 in 5.0 mi NNW 21.9 mph 33.4 mph N/A   Haze
8:53 PM 71.1 °F 39.0 °F 31% 29.63 in 10.0 mi North 18.4 mph 26.5 mph N/A   Clear
9:53 PM 72.0 °F 36.0 °F 27% 29.62 in 10.0 mi North 20.7 mph 28.8 mph N/A   Clear
10:53 PM 72.0 °F 36.0 °F 27% 29.62 in 10.0 mi North 16.1 mph 19.6 mph N/A   Overcast
11:53 PM 70.0 °F 36.0 °F 29% 29.62 in 10.0 mi North 13.8 mph - N/A   Partly Cloudy